Content
SEND FEEDBACK

Daily
Averages
Monthly
Summary
United States of America

NEW YORK - CENTRAL PARK, NEW YORK


Home > North America > United States > New York
Elevation: 4 meters     Latitude: 40 47N     Longitude: 073 58W

WEATHER
 
SELECT A DAY
Number of Records: 148,440;   Date Range: 11/1/95 - 9/22/14
 
SHARE

PRINT THIS DATA

[ ← Previous Day ]
WEATHER ALMANAC - 11 JULY, 2013
[ Next Day → ]
[ °F ]   °C
Weather ElementAverageHighLow
Temperature26.5 °C28.3 °C (6:51 pm)25 °C (6:51 am)
Dewpoint19.6 °C22.8 °C (2:51 am)14.4 °C (10:51 pm)
Humidity66.5 %82 % (4:51 am)47 % (7:51 pm)
Barometer1011.2 hPa1013.5 hPa (11:51 pm)1009.1 hPa (4:51 am)
Wind Speed6.3 km/h13 km/h (11:51 pm)
Weather ElementAverage
Visibility14.5 km
Wind DirectionNNE (35.2 °)

Weather ElementTotal
Precipitation---
Cooling Degree Days8.3 (Base 18.3)
Growing Degree Days16.7 (Base 10)
Averaged from 25 records on 11 July, 2013
WEATHER CONDITIONS BREAKOUT
WIND DIRECTION BREAKOUT
WEATHER BY HOUR - 11 JULY, 2013
[ °F ]   °C
Local TimeTemperatureDewpointHumidityBarometerVisibilityWind DirectionWind SpeedGust SpeedPrecipitationEventsConditions
1:51 AM27.2 °C22.2 °C74 %1009.5 hPa12.9 kmVariable5.6 km/hMostly Cloudy
2:51 AM27.2 °C22.8 °C77 %1009.8 hPa12.9 kmWSW (250°)5.6 km/hScattered Clouds
3:51 AM26.7 °C22.2 °C76 %1009.5 hPa12.9 kmVariable5.6 km/hPartly Cloudy
4:51 AM26.1 °C22.8 °C82 %1009.1 hPa12.9 kmCalmOvercast
5:51 AM26.1 °C21.7 °C77 %1009.8 hPa14.5 kmVariable5.6 km/hOvercast
6:51 AM25 °C21.7 °C82 %1010.2 hPa12.9 kmNorth0 mmOvercast
7:13 AM25.6 °C21.7 °C79 %1011.5 hPa12.9 kmWSW (240°)9.3 km/hMostly Cloudy
7:32 AM25.6 °C22.2 °C81 %1011.5 hPa12.9 kmVariable7.4 km/hMostly Cloudy
7:51 AM25.6 °C21.7 °C79 %1010.8 hPa12.9 kmVariable7.4 km/hMostly Cloudy
8:51 AM25.6 °C22.2 °C81 %1010.8 hPa11.3 kmWest (280°)5.6 km/hMostly Cloudy
9:51 AM25.6 °C18.9 °C66 %1011.2 hPa14.5 kmVariable5.6 km/hOvercast
10:51 AM25 °C19.4 °C71 %1011.5 hPa14.5 kmVariable7.4 km/h0 mmMostly Cloudy
11:51 AM25.6 °C18.9 °C66 %1011.2 hPa16.1 kmCalmClear
12:51 PM26.7 °C18.9 °C62 %1011.5 hPa16.1 kmVariable5.6 km/hClear
1:51 PM26.7 °C19.4 °C64 %1011.2 hPa16.1 kmVariable7.4 km/hClear
2:51 PM27.8 °C19.4 °C60 %1011.2 hPa14.5 kmENE (60°)5.6 km/hClear
3:51 PM27.8 °C18.9 °C58 %1010.8 hPa14.5 kmCalmClear
4:51 PM27.2 °C20 °C65 %1010.8 hPa14.5 kmVariable5.6 km/hScattered Clouds
5:51 PM27.8 °C20.6 °C65 %1011.2 hPa14.5 kmVariable7.4 km/hClear
6:51 PM28.3 °C17.8 °C53 %1011.5 hPa16.1 kmVariable11.1 km/hScattered Clouds
7:51 PM27.8 °C15.6 °C47 %1012.2 hPa16.1 kmVariable7.4 km/hClear
8:51 PM27.2 °C15.6 °C49 %1012.5 hPa16.1 kmCalmClear
9:51 PM26.1 °C15 °C50 %1013.2 hPa16.1 kmVariable11.1 km/hClear
10:51 PM26.1 °C14.4 °C48 %1013.2 hPa16.1 kmVariable9.3 km/hClear
11:51 PM25.6 °C14.4 °C50 %1013.5 hPa16.1 kmNE (50°)13 km/hClear
Hourly data recorded from KNYC, located 0 kilometers away from New York - Central Park, New York







STORIES FROM OUR PARTNERS